Regional Weather Roundup
Issued by NWS

Home | Current Version | Previous Version | Graphics & Text | Print | Product List | Glossary On
Versions: 1 2 3 4 5 6 7 8 9 10 11 12 13 14 15 16 17 18 19 20 21 22 23 24 25 26 27 28 29 30 31 32 33 34 35 36 37 38 39 40 41 42 43 44 45 46 47 48 49 50
000
ASUS45 KSLC 261010
RWRUT

UTAH REGIONAL WEATHER ROUNDUP
NATIONAL WEATHER SERVICE SALT LAKE CITY UT
400 AM MDT TUE MAY 26 2015

UTZ001>011-023>025-261100-

NORTHERN UTAH

CITY           SKY/WX    TMP DP  RH WIND       PRES   REMARKS
BRIGHAM CITY   MOCLDY    52  47  85 CALM      29.99R
HILL AFB       CLOUDY    52  47  82 SE6       30.00R
LOGAN          CLOUDY    47  45  93 CALM      29.99R
OGDEN          MOCLDY    52  48  86 SE6       29.98R
PROVO AIRPORT  PTCLDY    52  45  76 S6        30.01S
SALT LAKE CITY MOCLDY    57  45  64 E5        29.98R
VERNAL         CLEAR     44  40  85 W5        30.04R
WENDOVER       MOCLDY    54  46  76 E7        29.97S
HEBER CITY     PTCLDY    41  37  87 CALM      30.05S
WEST JORDAN    MOCLDY    54  48  82 S12       30.00S

$$

UTZ012>022-026-027-261100-

SOUTHERN/CENTRAL UTAH

CITY           SKY/WX    TMP DP  RH WIND       PRES   REMARKS
BLANDING       CLEAR     45  42  91 N3        30.15R
BRYCE CANYON   CLOUDY    42  36  79 CALM      30.14S
CEDAR CITY     LGT RAIN  50  45  83 VRB3      30.12R
DELTA          MOCLDY    50  46  88 SW9       30.02R
HANKSVILLE     CLOUDY    50  43  76 CALM      30.01R
MILFORD        RAIN      53  50  89 S9        30.07R
MOAB/CYNLANDS  CLEAR     50  41  71 CALM      29.98S
PRICE          PTCLDY    47  39  74 CALM      30.04F
ST GEORGE      MOSUNNY   64  45  48 CALM      29.96R
KANAB          PTCLDY    46  45  93 CALM      30.08R

$$

REGIONAL REPORTS     COLORADO/ARIZONA

CITY           SKY/WX    TMP DP  RH WIND       PRES   REMARKS
CRAIG, CO      CLEAR     38  36  92 CALM      30.08R
GRAND JUNCTION CLOUDY    51  46  83 SE7       30.03R
RIFLE          PTCLDY    44  42  93 CALM      30.08R
MONTROSE       CLEAR     44  39  82 SE5       30.09S
CORTEZ         CLEAR     40  38  93 NE5       30.09S
PAGE, AZ       CLEAR     57  45  64 CALM      29.99R
GRAND CANYON   MOCLDY    37  36  96 NE3       30.15R
KINGMAN        CLEAR     59  35  40 E8        29.98R
FLAGSTAFF      CLEAR     37  36  96 CALM      30.17R

$$

REGIONAL REPORTS    NEVADA/IDAHO/WYOMING

CITY           SKY/WX    TMP DP  RH WIND       PRES   REMARKS
LAS VEGAS, NV  PTCLDY    77  38  24 S14       29.83S
ELY            CLOUDY    48  45  89 SW10      30.08F
ELKO           CLOUDY    48  45  89 CALM      30.02S
POCATELLO, ID  PTCLDY    49  46  90 S6        29.97S
BURLEY         PTCLDY    49  44  83 S3        29.94S
EVANSTON, WY   PTCLDY    41  37  86 SW7       30.06F
ROCK SPRINGS   CLEAR     40  37  89 W8        30.06S WCI  34
KEMMERER       PTCLDY    37  36  93 NW12      30.07S WCI  30

$$



USA.gov is the U.S. government's official web portal to all federal, state and local government web resources and services.